DELTA 1 DEB, 10712

Orbit data source: Space-Track

DELTA 1 DEB, 10712 is space debris in SSO originally from a launch on Thu, 29 Jul 1976 UTC launched from the Air Force Western Test Range (AFWTR). Debris objects in space refer to the collection of defunct objects orbiting the Earth. Examples of debris include non-operational satellites, rocket bodies, and fragments generated from explosions, collisions, or faulty payload assembly.

Loading next visibility...
Identifier
10712, 1976-077AH
Orbit
SSO
Country
Flag of USUS
Related business
Manufacturer
Unknown
Mission
Spacecraft
Bus & Motor
Unknown
Mass
Unknown
Launch date (UTC)
1976-07-29 (49 years ago)
Launch vehicle
Unknown
Launch site
Air Force Western Test Range (AFWTR)
Object type
Payload
Rocket body
Debris
Shape & HBR
Unknown shape, 0.2 m
Radar Cross Section
Small (<0.1 m²)

Expand to show TLE details & history
Last TLE update: 15 hours ago

TLE from 15 hours ago
0 DELTA 1 DEB
1 10712U 76077AH  25310.87972240  .00001263  00000-0  96941-2 0  9991
2 10712 102.2239  78.6522 0075427 153.4785 294.8749 12.40074201220097
Epoch: 2025-11-06T21:06Z
TLE epoch observation values (Epoch: 2025-11-06T21:06:48.015Z)
Latitude
77.59838°
Longitude
-3.01589°
Altitude
1,494.609 km
Speed
7.135 km/s
True Right ascension
00h 00m 03s
True Declination
77° 31' 58"
Sunlit
Object was in daylight at epoch
Visualization orbit readout
Latitude
Unknown
Longitude
Unknown
Altitude
Unknown
Speed
Unknown
Apparent Right ascension
Unknown
Apparent Declination
Unknown
Sunlit
N/A
Visualization observer readout
Local Sidereal Time
08:36:40
Azimuth
Unknown
Elevation
Unknown
Doppler factor
Unknown
Orbital elements
Apogee altitude
1,563.328 km
Perigee altitude
1,444.425 km
Semi-major axis
7,882.013 km
Eccentricity
0.00754
Inclination
102.2239°
RAAN
78.6522°
Arg. of periapsis
153.4785°
True anomaly
294.08766°
Mean anomaly
294.8749°
Eccentric anomaly
294.48159°
Mean motion
3.10161 °/min
Orbital period
116.07 mins
BSTAR
0.0096941
Loading maneuver chart data...
Computing Atmospheric mass density...
Loading historical data...
Loading historical data...
Loading historical data...
Loading historical data...
Loading historical data...
Loading historical data...
Loading historical data...

Documentation

Showing up to 5 results
|